When you browse on this site, cookies collect data to enhance your experience and personalize the content and advertising you see.
Visit our Privacy Policy to learn more. By continuing to use the site, you agree to this use of cookies and data.
  • In Hungary
  • List of Countries
  • For 7 days
  • Water Temperature
  • Satellite Maps
  • Weather Map
  • News
  • Weather Widgets
  • user-avatar
    Login

    Hourly Weather Sinemorec

    Today, 24 January, Thursday

    Time Temperature Precipitation Wind Pressure Humidity
    00:00 +9°C° 0.2 mm 6 mps 750 mmHg 84%
    01:00 +9°C° 0.2 mm 5 mps 749 mmHg 86%
    02:00 +9°C° 0.2 mm 5 mps 749 mmHg 88%
    03:00 +9°C° 0 mm 5 mps 749 mmHg 89%
    04:00 +9°C° 0 mm 5 mps 748 mmHg 89%
    05:00 +9°C° 0 mm 5 mps 748 mmHg 90%
    06:00 +9°C° 0.2 mm 5 mps 747 mmHg 88%
    07:00 +9°C° 0.2 mm 5 mps 747 mmHg 87%
    08:00 +9°C° 0.2 mm 5 mps 747 mmHg 85%
    09:00 +8°C° 1 mm 4 mps 746 mmHg 86%
    10:00 +8°C° 1 mm 4 mps 746 mmHg 87%
    11:00 +9°C° 1 mm 3 mps 746 mmHg 88%
    12:00 +10°C° 0.2 mm 4 mps 746 mmHg 87%
    13:00 +10°C° 0.2 mm 4 mps 746 mmHg 85%
    14:00 +9°C° 0.2 mm 5 mps 745 mmHg 84%
    15:00 +9°C° 0 mm 5 mps 745 mmHg 84%
    16:00 +9°C° 0 mm 5 mps 746 mmHg 85%
    17:00 +10°C° 0 mm 4 mps 746 mmHg 85%
    18:00 +10°C° 0 mm 4 mps 746 mmHg 87%
    19:00 +10°C° 0 mm 4 mps 746 mmHg 89%
    20:00 +9°C° 0 mm 3 mps 747 mmHg 91%
    21:00 +9°C° 0 mm 3 mps 747 mmHg 91%
    22:00 +9°C° 0 mm 3 mps 748 mmHg 91%
    23:00 +8°C° 0 mm 3 mps 748 mmHg 91%

    Tomorrow, 25 January, Friday

    Time Temperature Precipitation Wind Pressure Humidity
    00:00 +8°C° 0 mm 3 mps 749 mmHg 90%
    01:00 +8°C° 0 mm 3 mps 749 mmHg 89%
    02:00 +8°C° 0 mm 3 mps 750 mmHg 89%
    03:00 +8°C° 0 mm 3 mps 750 mmHg 89%
    04:00 +9°C° 0 mm 3 mps 750 mmHg 89%
    05:00 +9°C° 0 mm 3 mps 750 mmHg 89%
    06:00 +9°C° 0 mm 3 mps 750 mmHg 89%
    07:00 +8°C° 0 mm 3 mps 750 mmHg 88%
    08:00 +8°C° 0 mm 3 mps 750 mmHg 88%
    09:00 +10°C° 0 mm 4 mps 750 mmHg 81%
    10:00 +10°C° 0 mm 5 mps 750 mmHg 74%
    11:00 +12°C° 0 mm 5 mps 751 mmHg 67%
    12:00 +13°C° 0 mm 5 mps 750 mmHg 65%
    13:00 +14°C° 0 mm 5 mps 750 mmHg 62%
    14:00 +14°C° 0 mm 5 mps 750 mmHg 60%
    15:00 +13°C° 0.4 mm 5 mps 749 mmHg 67%
    16:00 +12°C° 0.4 mm 5 mps 749 mmHg 74%
    17:00 +9°C° 0.4 mm 5 mps 749 mmHg 82%
    18:00 +9°C° 0.4 mm 6 mps 749 mmHg 83%
    19:00 +9°C° 0.4 mm 6 mps 748 mmHg 84%
    20:00 +9°C° 0.4 mm 7 mps 748 mmHg 85%
    21:00 +9°C° 0.5 mm 7 mps 748 mmHg 85%
    22:00 +9°C° 0.5 mm 8 mps 748 mmHg 86%
    23:00 +9°C° 0.5 mm 8 mps 748 mmHg 87%

    Day after tomorrow, 26 January, Saturday

    Time Temperature Precipitation Wind Pressure Humidity
    00:00 +9°C° 0 mm 7 mps 748 mmHg 87%
    01:00 +9°C° 0 mm 7 mps 747 mmHg 88%
    02:00 +8°C° 0 mm 6 mps 747 mmHg 89%
    03:00 +8°C° 0 mm 5 mps 747 mmHg 90%
    04:00 +8°C° 0 mm 4 mps 746 mmHg 91%
    05:00 +8°C° 0 mm 3 mps 746 mmHg 92%
    06:00 +8°C° 0 mm 3 mps 746 mmHg 90%
    07:00 +9°C° 0 mm 3 mps 746 mmHg 89%
    08:00 +9°C° 0 mm 2 mps 746 mmHg 87%
    09:00 +10°C° 0 mm 3 mps 747 mmHg 80%
    10:00 +11°C° 0 mm 4 mps 747 mmHg 74%
    11:00 +13°C° 0 mm 4 mps 747 mmHg 67%
    12:00 +13°C° 0.2 mm 4 mps 747 mmHg 69%
    13:00 +12°C° 0.2 mm 5 mps 747 mmHg 71%
    14:00 +12°C° 0.2 mm 5 mps 746 mmHg 73%
    15:00 +12°C° 0.1 mm 4 mps 747 mmHg 75%
    16:00 +11°C° 0.1 mm 4 mps 747 mmHg 77%
    17:00 +11°C° 0.1 mm 3 mps 747 mmHg 78%
    18:00 +10°C° 0 mm 3 mps 747 mmHg 81%
    19:00 +10°C° 0 mm 2 mps 748 mmHg 83%
    20:00 +9°C° 0 mm 2 mps 748 mmHg 85%
    21:00 +10°C° 0 mm 1 mps 748 mmHg 86%
    22:00 +9°C° 0 mm 1 mps 748 mmHg 87%
    23:00 +9°C° 0 mm 1 mps 749 mmHg 88%

    27 January, Sunday

    Time Temperature Precipitation Wind Pressure Humidity
    00:00 +9°C° 0 mm 1 mps 749 mmHg 89%
    01:00 +7°C° 0 mm 2 mps 749 mmHg 91%
    02:00 +7°C° 0 mm 3 mps 749 mmHg 93%
    03:00 +6°C° 0 mm 4 mps 749 mmHg 94%
    04:00 +6°C° 0 mm 5 mps 749 mmHg 95%
    05:00 +7°C° 0 mm 6 mps 750 mmHg 96%
    06:00 +5°C° 0.1 mm 6 mps 750 mmHg 95%
    07:00 +5°C° 0.1 mm 6 mps 751 mmHg 94%
    08:00 +5°C° 0.1 mm 6 mps 751 mmHg 93%
    09:00 +5°C° 0 mm 6 mps 752 mmHg 92%
    10:00 +5°C° 0 mm 6 mps 752 mmHg 90%
    11:00 +5°C° 0 mm 6 mps 753 mmHg 89%
    12:00 +6°C° 0 mm 5 mps 753 mmHg 88%
    13:00 +6°C° 0 mm 5 mps 752 mmHg 88%
    14:00 +6°C° 0 mm 4 mps 752 mmHg 87%
    15:00 +6°C° 0 mm 4 mps 753 mmHg 87%
    16:00 +6°C° 0 mm 4 mps 753 mmHg 87%
    17:00 +5°C° 0 mm 4 mps 753 mmHg 87%
    18:00 +5°C° 0 mm 3 mps 754 mmHg 88%
    19:00 +5°C° 0 mm 3 mps 754 mmHg 89%
    20:00 +5°C° 0 mm 3 mps 755 mmHg 90%
    21:00 +6°C° 0 mm 2 mps 755 mmHg 89%
    22:00 +6°C° 0 mm 2 mps 755 mmHg 89%
    23:00 +6°C° 0 mm 2 mps 756 mmHg 89%

    28 January, Monday

    Time Temperature Precipitation Wind Pressure Humidity
    00:00 +5°C° 0 mm 2 mps 756 mmHg 89%
    01:00 +6°C° 0 mm 1 mps 756 mmHg 90%
    02:00 +6°C° 0 mm 1 mps 756 mmHg 91%
    03:00 +5°C° 0 mm 1 mps 756 mmHg 91%
    04:00 +5°C° 0 mm 1 mps 756 mmHg 92%
    05:00 +4°C° 0 mm 0 mps 756 mmHg 92%
    06:00 +4°C° 0 mm 0 mps 756 mmHg 92%
    07:00 +5°C° 0 mm 1 mps 756 mmHg 92%
    08:00 +5°C° 0 mm 1 mps 757 mmHg 91%
    09:00 +7°C° 0 mm 1 mps 757 mmHg 85%
    10:00 +8°C° 0 mm 1 mps 757 mmHg 79%
    11:00 +10°C° 0 mm 1 mps 757 mmHg 74%
    12:00 +9°C° 0 mm 2 mps 757 mmHg 72%
    13:00 +10°C° 0 mm 2 mps 757 mmHg 71%
    14:00 +11°C° 0 mm 3 mps 757 mmHg 70%
    15:00 +10°C° 0 mm 3 mps 757 mmHg 74%
    16:00 +10°C° 0 mm 3 mps 757 mmHg 78%
    17:00 +8°C° 0 mm 4 mps 757 mmHg 82%
    18:00 +7°C° 0 mm 4 mps 757 mmHg 85%
    19:00 +7°C° 0 mm 4 mps 757 mmHg 88%
    20:00 +7°C° 0 mm 3 mps 758 mmHg 92%
    21:00 +7°C° 0 mm 3 mps 758 mmHg 92%
    22:00 +7°C° 0 mm 3 mps 758 mmHg 91%
    23:00 +7°C° 0 mm 3 mps 758 mmHg 91%

    29 January, Tuesday

    Time Temperature Precipitation Wind Pressure Humidity
    00:00 +6°C° 0 mm 4 mps 758 mmHg 91%
    01:00 +6°C° 0 mm 4 mps 758 mmHg 91%
    02:00 +6°C° 0 mm 4 mps 758 mmHg 91%
    03:00 +6°C° 0 mm 4 mps 758 mmHg 90%
    04:00 +6°C° 0 mm 4 mps 758 mmHg 90%
    05:00 +6°C° 0 mm 4 mps 757 mmHg 89%
    06:00 +6°C° 0 mm 4 mps 757 mmHg 88%
    07:00 +7°C° 0 mm 5 mps 758 mmHg 86%
    08:00 +7°C° 0 mm 5 mps 758 mmHg 85%
    09:00 +9°C° 0 mm 5 mps 758 mmHg 80%
    10:00 +10°C° 0 mm 6 mps 758 mmHg 75%
    11:00 +13°C° 0 mm 6 mps 758 mmHg 71%
    12:00 +13°C° 0 mm 6 mps 758 mmHg 69%
    13:00 +14°C° 0 mm 6 mps 757 mmHg 67%
    14:00 +14°C° 0 mm 5 mps 757 mmHg 66%
    15:00 +13°C° 0 mm 5 mps 757 mmHg 69%
    16:00 +13°C° 0 mm 5 mps 757 mmHg 72%
    17:00 +12°C° 0 mm 4 mps 757 mmHg 75%
    18:00 +12°C° 0 mm 4 mps 757 mmHg 76%
    19:00 +11°C° 0 mm 4 mps 757 mmHg 77%
    20:00 +10°C° 0 mm 4 mps 757 mmHg 79%
    21:00 +10°C° 0 mm 4 mps 757 mmHg 78%
    22:00 +10°C° 0 mm 3 mps 757 mmHg 78%
    23:00 +10°C° 0 mm 3 mps 757 mmHg 78%
    Show more